datetime,flow
1909-10-01,140.0
1909-10-02,135.0
1909-10-03,130.0
1909-10-04,125.0
1909-10-05,130.0
1909-10-06,120.0
1909-10-07,130.0
1909-10-08,130.0
1909-10-09,130.0
1909-10-10,130.0
1909-10-11,130.0
1909-10-12,130.0
1909-10-13,130.0
1909-10-14,130.0
1909-10-15,130.0
1909-10-16,120.0
1909-10-17,120.0
1909-10-18,120.0
1909-10-19,120.0
1909-10-20,120.0
1909-10-21,120.0
1909-10-22,120.0
1909-10-23,120.0
1909-10-24,120.0
1909-10-25,115.0
1909-10-26,110.0
1909-10-27,140.0
1909-10-28,140.0
1909-10-29,140.0
1909-10-30,140.0
1909-10-31,140.0
1909-11-01,140.0
1909-11-02,140.0
1909-11-03,140.0
1909-11-04,140.0
1909-11-05,140.0
1909-11-06,140.0
1909-11-07,140.0
1909-11-08,130.0
1909-11-09,135.0
1909-11-10,170.0
1909-11-11,160.0
1909-11-12,185.0
1909-11-13,150.0
1909-11-14,140.0
1909-11-15,140.0
1909-11-16,150.0
1909-11-17,140.0
1909-11-18,140.0
1909-11-19,130.0
1909-11-20,130.0
1909-11-21,140.0
1909-11-22,160.0
1909-11-23,160.0
1909-11-24,240.0
1909-11-25,170.0
1909-11-26,185.0
1909-11-27,170.0
1909-11-28,360.0
1909-11-29,210.0
1909-11-30,185.0
1909-12-01,125.0
1909-12-02,125.0
1909-12-03,125.0
1909-12-04,125.0
1909-12-05,125.0
1909-12-06,125.0
1909-12-07,125.0
1909-12-08,125.0
1909-12-09,125.0
1909-12-10,125.0
1909-12-11,125.0
1909-12-12,125.0
1909-12-13,125.0
1909-12-14,125.0
1909-12-15,125.0
1909-12-16,125.0
1909-12-17,125.0
1909-12-18,125.0
1909-12-19,125.0
1909-12-20,125.0
1909-12-21,125.0
1909-12-22,125.0
1909-12-23,125.0
1909-12-24,125.0
1909-12-25,125.0
1909-12-26,125.0
1909-12-27,125.0
1909-12-28,125.0
1909-12-29,125.0
1909-12-30,125.0
1909-12-31,125.0
1910-01-01,150.0
1910-01-02,150.0
1910-01-03,150.0
1910-01-04,150.0
1910-01-05,150.0
1910-01-06,150.0
1910-01-07,150.0
1910-01-08,150.0
1910-01-09,150.0
1910-01-10,150.0
1910-01-11,150.0
1910-01-12,150.0
1910-01-13,150.0
1910-01-14,150.0
1910-01-15,150.0
1910-01-16,150.0
1910-01-17,150.0
1910-01-18,150.0
1910-01-19,150.0
1910-01-20,150.0
1910-01-21,150.0
1910-01-22,150.0
1910-01-23,150.0
1910-01-24,150.0
1910-01-25,150.0
1910-01-26,150.0
1910-01-27,150.0
1910-01-28,150.0
1910-01-29,150.0
1910-01-30,150.0
1910-01-31,150.0
1910-02-01,200.0
1910-02-02,200.0
1910-02-03,200.0
1910-02-04,200.0
1910-02-05,200.0
1910-02-06,200.0
1910-02-07,200.0
1910-02-08,200.0
1910-02-09,200.0
1910-02-10,200.0
1910-02-11,200.0
1910-02-12,200.0
1910-02-13,200.0
1910-02-14,200.0
1910-02-15,200.0
1910-02-16,200.0
1910-02-17,200.0
1910-02-18,200.0
1910-02-19,200.0
1910-02-20,200.0
1910-02-21,200.0
1910-02-22,200.0
1910-02-23,200.0
1910-02-24,200.0
1910-02-25,200.0
1910-02-26,200.0
1910-02-27,200.0
1910-02-28,200.0
1910-03-01,475.0
1910-03-02,1100.0
1910-03-03,1990.0
1910-03-04,2180.0
1910-03-05,2330.0
1910-03-06,1840.0
1910-03-07,1220.0
1910-03-08,875.0
1910-03-09,775.0
1910-03-10,685.0
1910-03-11,545.0
1910-03-12,458.0
1910-03-13,510.0
1910-03-14,475.0
1910-03-15,405.0
1910-03-16,510.0
1910-03-17,458.0
1910-03-18,405.0
1910-03-19,440.0
1910-03-20,492.0
1910-03-21,422.0
1910-03-22,422.0
1910-03-23,440.0
1910-03-24,375.0
1910-03-25,440.0
1910-03-26,405.0
1910-03-27,405.0
1910-03-28,440.0
1910-03-29,422.0
1910-03-30,332.0
1910-03-31,320.0
1910-04-01,375.0
1910-04-02,310.0
1910-04-03,360.0
1910-04-04,440.0
1910-04-05,360.0
1910-04-06,405.0
1910-04-07,390.0
1910-04-08,440.0
1910-04-09,390.0
1910-04-10,440.0
1910-04-11,440.0
1910-04-12,440.0
1910-04-13,492.0
1910-04-14,440.0
1910-04-15,645.0
1910-04-16,510.0
1910-04-17,565.0
1910-04-18,685.0
1910-04-19,585.0
1910-04-20,705.0
1910-04-21,850.0
1910-04-22,750.0
1910-04-23,665.0
1910-04-24,900.0
1910-04-25,1400.0
1910-04-26,1300.0
1910-04-27,1740.0
1910-04-28,1800.0
1910-04-29,1880.0
1910-04-30,1740.0
1910-05-01,1530.0
1910-05-02,1340.0
1910-05-03,1190.0
1910-05-04,1080.0
1910-05-05,1160.0
1910-05-06,1020.0
1910-05-07,925.0
1910-05-08,925.0
1910-05-09,1240.0
1910-05-10,1560.0
1910-05-11,2070.0
1910-05-12,2100.0
1910-05-13,2030.0
1910-05-14,1960.0
1910-05-15,1880.0
1910-05-16,1750.0
1910-05-17,1400.0
1910-05-18,1120.0
1910-05-19,990.0
1910-05-20,950.0
1910-05-21,890.0
1910-05-22,810.0
1910-05-23,690.0
1910-05-24,750.0
1910-05-25,700.0
1910-05-26,760.0
1910-05-27,720.0
1910-05-28,850.0
1910-05-29,870.0
1910-05-30,900.0
1910-05-31,920.0
1910-06-01,900.0
1910-06-02,800.0
1910-06-03,780.0
1910-06-04,750.0
1910-06-05,690.0
1910-06-06,590.0
1910-06-07,530.0
1910-06-08,360.0
1910-06-09,360.0
1910-06-10,320.0
1910-06-11,270.0
1910-06-12,240.0
1910-06-13,200.0
1910-06-14,205.0
1910-06-15,185.0
1910-06-16,176.0
1910-06-17,168.0
1910-06-18,160.0
1910-06-19,144.0
1910-06-20,120.0
1910-06-21,120.0
1910-06-22,105.0
1910-06-23,90.0
1910-06-24,90.0
1910-06-25,83.0
1910-06-26,70.0
1910-06-27,57.0
1910-06-28,70.0
1910-06-29,185.0
1910-06-30,390.0
1910-07-01,492.0
1910-07-02,316.0
1910-07-03,193.0
1910-07-04,176.0
1910-07-05,176.0
1910-07-06,152.0
1910-07-07,112.0
1910-07-08,98.0
1910-07-09,83.0
1910-07-10,70.0
1910-07-11,57.0
1910-07-12,57.0
1910-07-13,40.0
1910-07-14,63.0
1910-07-15,46.0
1910-07-16,152.0
1910-07-17,254.0
1910-07-18,144.0
1910-07-19,83.0
1910-07-20,57.0
1910-07-21,70.0
1910-07-22,63.0
1910-07-23,40.0
1910-07-24,46.0
1910-07-25,35.0
1910-07-26,30.0
1910-07-27,16.0
1910-07-28,8.0
1910-07-29,76.0
1910-07-30,90.0
1910-07-31,120.0
1910-08-01,57.0
1910-08-02,46.0
1910-08-03,51.0
1910-08-04,46.0
1910-08-05,40.0
1910-08-06,40.0
1910-08-07,46.0
1910-08-08,35.0
1910-08-09,25.0
1910-08-10,11.0
1910-08-11,2.0
1910-08-12,390.0
1910-08-13,90.0
1910-08-14,63.0
1910-08-15,70.0
1910-08-16,83.0
1910-08-17,57.0
1910-08-18,46.0
1910-08-19,35.0
1910-08-20,25.0
1910-08-21,46.0
1910-08-22,20.0
1910-08-23,2.0
1910-08-24,0.0
1910-08-25,0.0
1910-08-26,0.0
1910-08-27,0.0
1910-08-28,30.0
1910-08-29,0.0
1910-08-30,8.0
1910-08-31,8.0
1910-09-01,4.0
1910-09-02,16.0
1910-09-03,16.0
1910-09-04,702.0
1910-09-05,232.0
1910-09-06,128.0
1910-09-07,128.0
1910-09-08,83.0
1910-09-09,70.0
1910-09-10,35.0
1910-09-11,20.0
1910-09-12,11.0
1910-09-13,4.0
1910-09-14,4.0
1910-09-15,0.0
1910-09-16,254.0
1910-09-17,3040.0
1910-09-18,359.0
1910-09-19,344.0
1910-09-20,303.0
1910-09-21,212.0
1910-09-22,278.0
1910-09-23,232.0
1910-09-24,152.0
1910-09-25,98.0
1910-09-26,90.0
1910-09-27,57.0
1910-09-28,63.0
1910-09-29,51.0
1910-09-30,57.0
1910-10-01,57.0
1910-10-02,63.0
1910-10-03,46.0
1910-10-04,57.0
1910-10-05,70.0
1910-10-06,57.0
1910-10-07,51.0
1910-10-08,46.0
1910-10-09,46.0
1910-10-10,46.0
1910-10-11,46.0
1910-10-12,46.0
1910-10-13,51.0
1910-10-14,63.0
1910-10-15,76.0
1910-10-16,2250.0
1910-10-17,1770.0
1910-10-18,246.0
1910-10-19,177.0
1910-10-20,168.0
1910-10-21,126.0
1910-10-22,142.0
1910-10-23,150.0
1910-10-24,226.0
1910-10-25,118.0
1910-10-26,134.0
1910-10-27,126.0
1910-10-28,150.0
1910-10-29,134.0
1910-10-30,81.0
1910-10-31,68.0
1910-11-01,74.0
1910-11-02,88.0
1910-11-03,68.0
1910-11-04,56.0
1910-11-05,45.0
1910-11-06,36.0
1910-11-07,36.0
1910-11-08,45.0
1910-11-09,56.0
1910-11-10,45.0
1910-11-11,68.0
1910-11-12,56.0
1910-11-13,40.0
1910-11-14,62.0
1910-11-15,177.0
1910-11-16,310.0
1910-11-17,177.0
1910-11-18,118.0
1910-11-19,95.0
1910-11-20,206.0
1910-11-21,150.0
1910-11-22,126.0
1910-11-23,110.0
1910-11-24,88.0
1910-11-25,88.0
1910-11-26,134.0
1910-11-27,118.0
1910-11-28,102.0
1910-11-29,110.0
1910-11-30,81.0
1910-12-01,102.0
1910-12-02,126.0
1910-12-03,95.0
1910-12-04,110.0
1910-12-05,110.0
1910-12-06,88.0
1910-12-07,102.0
1910-12-08,81.0
1910-12-09,74.0
1910-12-10,88.0
1910-12-11,102.0
1910-12-12,134.0
1910-12-13,150.0
1910-12-14,142.0
1910-12-15,126.0
1910-12-16,110.0
1910-12-17,102.0
1910-12-18,88.0
1910-12-19,102.0
1910-12-20,81.0
1910-12-21,102.0
1910-12-22,95.0
1910-12-23,88.0
1910-12-24,74.0
1910-12-25,68.0
1910-12-26,68.0
1910-12-27,95.0
1910-12-28,102.0
1910-12-29,95.0
1910-12-30,110.0
1910-12-31,118.0
1911-01-01,102.0
1911-01-02,102.0
1911-01-03,102.0
1911-01-04,102.0
1911-01-05,102.0
1911-01-06,102.0
1911-01-07,102.0
1911-01-08,102.0
1911-01-09,102.0
1911-01-10,284.0
1911-01-11,1550.0
1911-01-12,714.0
1911-01-13,412.0
1911-01-14,272.0
1911-01-15,230.0
1911-01-16,142.0
1911-01-17,132.0
1911-01-18,112.0
1911-01-19,119.0
1911-01-20,128.0
1911-01-21,137.0
1911-01-22,137.0
1911-01-23,128.0
1911-01-24,137.0
1911-01-25,132.0
1911-01-26,123.0
1911-01-27,128.0
1911-01-28,142.0
1911-01-29,178.0
1911-01-30,380.0
1911-01-31,322.0
1911-02-01,649.0
1911-02-02,240.0
1911-02-03,336.0
1911-02-04,272.0
1911-02-05,322.0
1911-02-06,240.0
1911-02-07,202.0
1911-02-08,212.0
1911-02-09,172.0
1911-02-10,159.0
1911-02-11,148.0
1911-02-12,153.0
1911-02-13,159.0
1911-02-14,148.0
1911-02-15,159.0
1911-02-16,165.0
1911-02-17,148.0
1911-02-18,137.0
1911-02-19,137.0
1911-02-20,159.0
1911-02-21,148.0
1911-02-22,148.0
1911-02-23,137.0
1911-02-24,142.0
1911-02-25,148.0
1911-02-26,148.0
1911-02-27,148.0
1911-02-28,159.0
1911-03-01,142.0
1911-03-02,142.0
1911-03-03,137.0
1911-03-04,148.0
1911-03-05,159.0
1911-03-06,148.0
1911-03-07,148.0
1911-03-08,159.0
1911-03-09,172.0
1911-03-10,202.0
1911-03-11,230.0
1911-03-12,202.0
1911-03-13,159.0
1911-03-14,148.0
1911-03-15,148.0
1911-03-16,159.0
1911-03-17,159.0
1911-03-18,178.0
1911-03-19,165.0
1911-03-20,159.0
1911-03-21,212.0
1911-03-22,159.0
1911-03-23,148.0
1911-03-24,153.0
1911-03-25,212.0
1911-03-26,159.0
1911-03-27,148.0
1911-03-28,137.0
1911-03-29,128.0
1911-03-30,108.0
1911-03-31,261.0
1911-04-01,272.0
1911-04-02,178.0
1911-04-03,172.0
1911-04-04,221.0
1911-04-05,178.0
1911-04-06,178.0
1911-04-07,159.0
1911-04-08,202.0
1911-04-09,178.0
1911-04-10,165.0
1911-04-11,159.0
1911-04-12,148.0
1911-04-13,137.0
1911-04-14,153.0
1911-04-15,137.0
1911-04-16,128.0
1911-04-17,148.0
1911-04-18,137.0
1911-04-19,148.0
1911-04-20,137.0
1911-04-21,128.0
1911-04-22,119.0
1911-04-23,128.0
1911-04-24,128.0
1911-04-25,153.0
1911-04-26,165.0
1911-04-27,212.0
1911-04-28,185.0
1911-04-29,185.0
1911-04-30,165.0
1911-05-01,142.0
1911-05-02,128.0
1911-05-03,128.0
1911-05-04,159.0
1911-05-05,261.0
1911-05-06,528.0
1911-05-07,714.0
1911-05-08,692.0
1911-05-09,835.0
1911-05-10,760.0
1911-05-11,835.0
1911-05-12,566.0
1911-05-13,412.0
1911-05-14,309.0
1911-05-15,380.0
1911-05-16,460.0
1911-05-17,412.0
1911-05-18,460.0
1911-05-19,428.0
1911-05-20,460.0
1911-05-21,412.0
1911-05-22,380.0
1911-05-23,476.0
1911-05-24,586.0
1911-05-25,760.0
1911-05-26,760.0
1911-05-27,692.0
1911-05-28,566.0
1911-05-29,510.0
1911-05-30,460.0
1911-05-31,566.0
1911-06-01,670.0
1911-06-02,760.0
1911-06-03,714.0
1911-06-04,586.0
1911-06-05,670.0
1911-06-06,862.0
1911-06-07,877.0
1911-06-08,688.0
1911-06-09,688.0
1911-06-10,740.0
1911-06-11,688.0
1911-06-12,590.0
1911-06-13,614.0
1911-06-14,483.0
1911-06-15,792.0
1911-06-16,740.0
1911-06-17,688.0
1911-06-18,939.0
1911-06-19,908.0
1911-06-20,614.0
1911-06-21,544.0
1911-06-22,502.0
1911-06-23,544.0
1911-06-24,445.0
1911-06-25,483.0
1911-06-26,308.0
1911-06-27,322.0
1911-06-28,292.0
1911-06-29,264.0
1911-06-30,214.0
1911-07-01,144.0
1911-07-02,166.0
1911-07-03,121.0
1911-07-04,166.0
1911-07-05,144.0
1911-07-06,136.0
1911-07-07,114.0
1911-07-08,97.0
1911-07-09,82.0
1911-07-10,74.0
1911-07-11,67.0
1911-07-12,64.0
1911-07-13,64.0
1911-07-14,59.0
1911-07-15,57.0
1911-07-16,59.0
1911-07-17,59.0
1911-07-18,54.0
1911-07-19,56.0
1911-07-20,87.0
1911-07-21,108.0
1911-07-22,92.0
1911-07-23,82.0
1911-07-24,92.0
1911-07-25,67.0
1911-07-26,61.0
1911-07-27,238.0
1911-07-28,202.0
1911-07-29,114.0
1911-07-30,67.0
1911-07-31,70.0
1911-08-01,59.0
1911-08-02,57.0
1911-08-03,55.0
1911-08-04,54.0
1911-08-05,52.0
1911-08-06,52.0
1911-08-07,50.0
1911-08-08,50.0
1911-08-09,50.0
1911-08-10,50.0
1911-08-11,50.0
1911-08-12,50.0
1911-08-13,166.0
1911-08-14,144.0
1911-08-15,92.0
1911-08-16,70.0
1911-08-17,59.0
1911-08-18,56.0
1911-08-19,54.0
1911-08-20,54.0
1911-08-21,52.0
1911-08-22,50.0
1911-08-23,614.0
1911-08-24,214.0
1911-08-25,114.0
1911-08-26,78.0
1911-08-27,61.0
1911-08-28,57.0
1911-08-29,55.0
1911-08-30,54.0
1911-08-31,56.0
1911-09-01,50.0
1911-09-02,50.0
1911-09-03,50.0
1911-09-04,50.0
1911-09-05,50.0
1911-09-06,50.0
1911-09-07,50.0
1911-09-08,50.0
1911-09-09,50.0
1911-09-10,50.0
1911-09-11,50.0
1911-09-12,50.0
1911-09-13,50.0
1911-09-14,92.0
1911-09-15,67.0
1911-09-16,114.0
1911-09-17,97.0
1911-09-18,78.0
1911-09-19,102.0
1911-09-20,67.0
1911-09-21,54.0
1911-09-22,52.0
1911-09-23,50.0
1911-09-24,55.0
1911-09-25,51.0
1911-09-26,54.0
1911-09-27,51.0
1911-09-28,155.0
1911-09-29,714.0
1911-09-30,2070.0
1911-10-01,1560.0
1911-10-02,339.0
1911-10-03,663.0
1911-10-04,1760.0
1911-10-05,2580.0
1911-10-06,1320.0
1911-10-07,544.0
1911-10-08,322.0
1911-10-09,226.0
1911-10-10,102.0
1911-10-11,74.0
1911-10-12,82.0
1911-10-13,74.0
1911-10-14,92.0
1911-10-15,82.0
1911-10-16,78.0
1911-10-17,70.0
1911-10-18,92.0
1911-10-19,87.0
1911-10-20,78.0
1911-10-21,87.0
1911-10-22,70.0
1911-10-23,59.0
1911-10-24,70.0
1911-10-25,87.0
1911-10-26,87.0
1911-10-27,67.0
1911-10-28,87.0
1911-10-29,67.0
1911-10-30,64.0
1911-10-31,59.0
1911-11-01,64.0
1911-11-02,70.0
1911-11-03,64.0
1911-11-04,67.0
1911-11-05,64.0
1911-11-06,59.0
1911-11-07,61.0
1911-11-08,57.0
1911-11-09,61.0
1911-11-10,59.0
1911-11-11,59.0
1911-11-12,59.0
1911-11-13,59.0
1911-11-14,59.0
1911-11-15,59.0
1911-11-16,59.0
1911-11-17,59.0
1911-11-18,59.0
1911-11-19,64.0
1911-11-20,78.0
1911-11-21,74.0
1911-11-22,78.0
1911-11-23,74.0
1911-11-24,70.0
1911-11-25,64.0
1911-11-26,65.0
1911-11-27,65.0
1911-11-28,65.0
1911-11-29,65.0
1911-11-30,65.0
1911-12-01,60.0
1911-12-02,60.0
1911-12-03,60.0
1911-12-04,60.0
1911-12-05,60.0
1911-12-06,60.0
1911-12-07,60.0
1911-12-08,60.0
1911-12-09,60.0
1911-12-10,60.0
1911-12-11,60.0
1911-12-12,60.0
1911-12-13,60.0
1911-12-14,60.0
1911-12-15,60.0
1911-12-16,60.0
1911-12-17,60.0
1911-12-18,60.0
1911-12-19,60.0
1911-12-20,60.0
1911-12-21,60.0
1911-12-22,60.0
1911-12-23,60.0
1911-12-24,60.0
1911-12-25,60.0
1911-12-26,60.0
1911-12-27,60.0
1911-12-28,60.0
1911-12-29,60.0
1911-12-30,60.0
1911-12-31,60.0
1912-01-01,50.0
1912-01-02,50.0
1912-01-03,50.0
1912-01-04,50.0
1912-01-05,50.0
1912-01-06,50.0
1912-01-07,50.0
1912-01-08,50.0
1912-01-09,50.0
1912-01-10,50.0
1912-01-11,50.0
1912-01-12,50.0
1912-01-13,50.0
1912-01-14,50.0
1912-01-15,50.0
1912-01-16,50.0
1912-01-17,50.0
1912-01-18,50.0
1912-01-19,50.0
1912-01-20,50.0
1912-01-21,50.0
1912-01-22,50.0
1912-01-23,50.0
1912-01-24,50.0
1912-01-25,50.0
1912-01-26,50.0
1912-01-27,50.0
1912-01-28,50.0
1912-01-29,50.0
1912-01-30,50.0
1912-01-31,50.0
1912-02-01,70.0
1912-02-02,70.0
1912-02-03,70.0
1912-02-04,70.0
1912-02-05,70.0
1912-02-06,70.0
1912-02-07,70.0
1912-02-08,70.0
1912-02-09,70.0
1912-02-10,70.0
1912-02-11,70.0
1912-02-12,70.0
1912-02-13,70.0
1912-02-14,70.0
1912-02-15,70.0
1912-02-16,70.0
1912-02-17,70.0
1912-02-18,70.0
1912-02-19,70.0
1912-02-20,70.0
1912-02-21,70.0
1912-02-22,70.0
1912-02-23,70.0
1912-02-24,70.0
1912-02-25,70.0
1912-02-26,70.0
1912-02-27,70.0
1912-02-28,70.0
1912-02-29,70.0
1912-03-01,100.0
1912-03-02,100.0
1912-03-03,100.0
1912-03-04,100.0
1912-03-05,100.0
1912-03-06,100.0
1912-03-07,100.0
1912-03-08,100.0
1912-03-09,100.0
1912-03-10,100.0
1912-03-11,100.0
1912-03-12,100.0
1912-03-13,100.0
1912-03-14,100.0
1912-03-15,100.0
1912-03-16,100.0
1912-03-17,100.0
1912-03-18,100.0
1912-03-19,100.0
1912-03-20,100.0
1912-03-21,100.0
1912-03-22,100.0
1912-03-23,100.0
1912-03-24,100.0
1912-03-25,100.0
1912-03-26,100.0
1912-03-27,100.0
1912-03-28,100.0
1912-03-29,100.0
1912-03-30,100.0
1912-03-31,100.0
1912-04-01,128.0
1912-04-02,102.0
1912-04-03,82.0
1912-04-04,82.0
1912-04-05,102.0
1912-04-06,102.0
1912-04-07,92.0
1912-04-08,112.0
1912-04-09,144.0
1912-04-10,155.0
1912-04-11,178.0
1912-04-12,136.0
1912-04-13,114.0
1912-04-14,108.0
1912-04-15,94.0
1912-04-16,82.0
1912-04-17,82.0
1912-04-18,82.0
1912-04-19,82.0
1912-04-20,100.0
1912-04-21,90.0
1912-04-22,78.0
1912-04-23,67.0
1912-04-24,61.0
1912-04-25,70.0
1912-04-26,70.0
1912-04-27,73.0
1912-04-28,70.0
1912-04-29,64.0
1912-04-30,70.0
1912-05-01,70.0
1912-05-02,70.0
1912-05-03,87.0
1912-05-04,108.0
1912-05-05,74.0
1912-05-06,66.0
1912-05-07,57.0
1912-05-08,57.0
1912-05-09,56.0
1912-05-10,74.0
1912-05-11,78.0
1912-05-12,155.0
1912-05-13,102.0
1912-05-14,102.0
1912-05-15,87.0
1912-05-16,76.0
1912-05-17,67.0
1912-05-18,238.0
1912-05-19,259.0
1912-05-20,339.0
1912-05-21,464.0
1912-05-22,590.0
1912-05-23,445.0
1912-05-24,434.0
1912-05-25,408.0
1912-05-26,792.0
1912-05-27,792.0
1912-05-28,908.0
1912-05-29,1320.0
1912-05-30,1940.0
1912-05-31,2270.0
1912-06-01,1320.0
1912-06-02,1480.0
1912-06-03,1910.0
1912-06-04,2560.0
1912-06-05,3510.0
1912-06-06,3260.0
1912-06-07,2710.0
1912-06-08,2760.0
1912-06-09,3160.0
1912-06-10,2660.0
1912-06-11,2140.0
1912-06-12,1710.0
1912-06-13,1600.0
1912-06-14,1910.0
1912-06-15,1640.0
1912-06-16,1360.0
1912-06-17,1040.0
1912-06-18,818.0
1912-06-19,790.0
1912-06-20,765.0
1912-06-21,740.0
1912-06-22,845.0
1912-06-23,845.0
1912-06-24,845.0
1912-06-25,965.0
1912-06-26,790.0
1912-06-27,845.0
1912-06-28,845.0
1912-06-29,690.0
1912-06-30,600.0
1912-07-01,622.0
1912-07-02,591.0
1912-07-03,490.0
1912-07-04,388.0
1912-07-05,285.0
1912-07-06,255.0
1912-07-07,228.0
1912-07-08,215.0
1912-07-09,180.0
1912-07-10,170.0
1912-07-11,154.0
1912-07-12,170.0
1912-07-13,220.0
1912-07-14,170.0
1912-07-15,90.0
1912-07-16,34.0
1912-07-17,34.0
1912-07-18,34.0
1912-07-19,26.0
1912-07-20,26.0
1912-07-21,20.0
1912-07-22,34.0
1912-07-23,34.0
1912-07-24,34.0
1912-07-25,26.0
1912-07-26,470.0
1912-07-27,202.0
1912-07-28,215.0
1912-07-29,510.0
1912-07-30,330.0
1912-07-31,645.0
1912-08-01,532.0
1912-08-02,519.0
1912-08-03,315.0
1912-08-04,170.0
1912-08-05,120.0
1912-08-06,58.0
1912-08-07,37.0
1912-08-08,34.0
1912-08-09,31.0
1912-08-10,32.0
1912-08-11,30.0
1912-08-12,30.0
1912-08-13,26.0
1912-08-14,26.0
1912-08-15,20.0
1912-08-16,18.0
1912-08-17,17.0
1912-08-18,15.0
1912-08-19,15.0
1912-08-20,15.0
1912-08-21,15.0
1912-08-22,15.0
1912-08-23,15.0
1912-08-24,15.0
1912-08-25,15.0
1912-08-26,20.0
1912-08-27,20.0
1912-08-28,20.0
1912-08-29,20.0
1912-08-30,20.0
1912-08-31,82.0
1912-09-01,68.0
1912-09-02,62.0
1912-09-03,55.0
1912-09-04,55.0
1912-09-05,55.0
1912-09-06,62.0
1912-09-07,55.0
1912-09-08,62.0
1912-09-09,55.0
1912-09-10,190.0
1912-09-11,82.0
1912-09-12,62.0
1912-09-13,55.0
1912-09-14,62.0
1912-09-15,62.0
1912-09-16,50.0
1912-09-17,50.0
1912-09-18,50.0
1912-09-19,50.0
1912-09-20,50.0
1912-09-21,50.0
1912-09-22,50.0
1912-09-23,50.0
1912-09-24,50.0
1912-09-25,50.0
1912-09-26,50.0
1912-09-27,50.0
1912-09-28,50.0
1912-09-29,50.0
1912-09-30,50.0
1912-10-01,50.0
1912-10-02,50.0
1912-10-03,50.0
1912-10-04,50.0
1912-10-05,50.0
1912-10-06,50.0
1912-10-07,50.0
1912-10-08,50.0
1912-10-09,50.0
1912-10-10,50.0
1912-10-11,50.0
1912-10-12,84.0
1912-10-13,46.0
1912-10-14,46.0
1912-10-15,56.0
1912-10-16,54.0
1912-10-17,68.0
1912-10-18,82.0
1912-10-19,90.0
1912-10-20,62.0
1912-10-21,58.0
1912-10-22,54.0
1912-10-23,54.0
1912-10-24,46.0
1912-10-25,41.0
1912-10-26,35.0
1912-10-27,270.0
1912-10-28,2790.0
1912-10-29,2070.0
1912-10-30,2890.0
1912-10-31,2470.0
1912-11-01,1680.0
1912-11-02,1310.0
1912-11-03,810.0
1912-11-04,255.0
1912-11-05,180.0
1912-11-06,155.0
1912-11-07,60.0
1912-11-08,56.0
1912-11-09,52.0
1912-11-10,100.0
1912-11-11,60.0
1912-11-12,60.0
1912-11-13,60.0
1912-11-14,60.0
1912-11-15,70.0
1912-11-16,83.0
1912-11-17,111.0
1912-11-18,99.0
1912-11-19,95.0
1912-11-20,95.0
1912-11-21,72.0
1912-11-22,60.0
1912-11-23,60.0
1912-11-24,60.0
1912-11-25,52.0
1912-11-26,48.0
1912-11-27,45.0
1912-11-28,45.0
1912-11-29,42.0
1912-11-30,40.0
1912-12-01,40.0
1912-12-02,45.0
1912-12-03,45.0
1912-12-04,48.0
1912-12-05,56.0
1912-12-06,48.0
1912-12-07,45.0
1912-12-08,60.0
1912-12-09,60.0
1912-12-10,56.0
1912-12-11,45.0
1912-12-12,45.0
1912-12-13,46.0
1912-12-14,40.0
1912-12-15,40.0
1912-12-16,42.0
1912-12-17,45.0
1912-12-18,48.0
1912-12-19,52.0
1912-12-20,45.0
1912-12-21,45.0
1912-12-22,45.0
1912-12-23,45.0
1912-12-24,45.0
1912-12-25,45.0
1912-12-26,45.0
1912-12-27,45.0
1912-12-28,45.0
1912-12-29,45.0
1912-12-30,45.0
1912-12-31,45.0
1913-01-01,40.0
1913-01-02,40.0
1913-01-03,40.0
1913-01-04,40.0
1913-01-05,40.0
1913-01-06,40.0
1913-01-07,40.0
1913-01-08,40.0
1913-01-09,40.0
1913-01-10,40.0
1913-01-11,40.0
1913-01-12,40.0
1913-01-13,40.0
1913-01-14,40.0
1913-01-15,40.0
1913-01-16,40.0
1913-01-17,40.0
1913-01-18,40.0
1913-01-19,40.0
1913-01-20,40.0
1913-01-21,40.0
1913-01-22,40.0
1913-01-23,40.0
1913-01-24,40.0
1913-01-25,40.0
1913-01-26,40.0
1913-01-27,40.0
1913-01-28,40.0
1913-01-29,40.0
1913-01-30,40.0
1913-01-31,40.0
1913-02-01,50.0
1913-02-02,50.0
1913-02-03,50.0
1913-02-04,50.0
1913-02-05,50.0
1913-02-06,50.0
1913-02-07,50.0
1913-02-08,50.0
1913-02-09,50.0
1913-02-10,50.0
1913-02-11,50.0
1913-02-12,50.0
1913-02-13,50.0
1913-02-14,50.0
1913-02-15,50.0
1913-02-16,50.0
1913-02-17,50.0
1913-02-18,50.0
1913-02-19,50.0
1913-02-20,50.0
1913-02-21,50.0
1913-02-22,50.0
1913-02-23,50.0
1913-02-24,50.0
1913-02-25,50.0
1913-02-26,50.0
1913-02-27,50.0
1913-02-28,50.0
1913-03-01,135.0
1913-03-02,205.0
1913-03-03,135.0
1913-03-04,135.0
1913-03-05,168.0
1913-03-06,145.0
1913-03-07,125.0
1913-03-08,125.0
1913-03-09,105.0
1913-03-10,125.0
1913-03-11,125.0
1913-03-12,105.0
1913-03-13,88.0
1913-03-14,105.0
1913-03-15,115.0
1913-03-16,145.0
1913-03-17,125.0
1913-03-18,105.0
1913-03-19,105.0
1913-03-20,145.0
1913-03-21,155.0
1913-03-22,145.0
1913-03-23,155.0
1913-03-24,145.0
1913-03-25,145.0
1913-03-26,155.0
1913-03-27,145.0
1913-03-28,135.0
1913-03-29,145.0
1913-03-30,135.0
1913-03-31,192.0
1913-04-01,1060.0
1913-04-02,930.0
1913-04-03,480.0
1913-04-04,285.0
1913-04-05,185.0
1913-04-06,218.0
1913-04-07,175.0
1913-04-08,155.0
1913-04-09,135.0
1913-04-10,105.0
1913-04-11,88.0
1913-04-12,80.0
1913-04-13,135.0
1913-04-14,230.0
1913-04-15,300.0
1913-04-16,255.0
1913-04-17,345.0
1913-04-18,315.0
1913-04-19,445.0
1913-04-20,315.0
1913-04-21,255.0
1913-04-22,315.0
1913-04-23,330.0
1913-04-24,255.0
1913-04-25,330.0
1913-04-26,345.0
1913-04-27,345.0
1913-04-28,410.0
1913-04-29,520.0
1913-04-30,810.0
1913-05-01,1570.0
1913-05-02,1980.0
1913-05-03,1910.0
1913-05-04,1570.0
1913-05-05,940.0
1913-05-06,580.0
1913-05-07,540.0
1913-05-08,500.0
1913-05-09,500.0
1913-05-10,540.0
1913-05-11,765.0
1913-05-12,765.0
1913-05-13,1000.0
1913-05-14,880.0
1913-05-15,715.0
1913-05-16,715.0
1913-05-17,665.0
1913-05-18,765.0
1913-05-19,765.0
1913-05-20,880.0
1913-05-21,880.0
1913-05-22,1000.0
1913-05-23,1210.0
1913-05-24,1280.0
1913-05-25,1420.0
1913-05-26,1420.0
1913-05-27,1420.0
1913-05-28,1570.0
1913-05-29,1650.0
1913-05-30,1650.0
1913-05-31,1280.0
1913-06-01,1140.0
1913-06-02,1280.0
1913-06-03,1420.0
1913-06-04,1490.0
1913-06-05,580.0
1913-06-06,765.0
1913-06-07,765.0
1913-06-08,765.0
1913-06-09,665.0
1913-06-10,540.0
1913-06-11,500.0
1913-06-12,500.0
1913-06-13,460.0
1913-06-14,400.0
1913-06-15,325.0
1913-06-16,325.0
1913-06-17,340.0
1913-06-18,237.0
1913-06-19,158.0
1913-06-20,120.0
1913-06-21,70.0
1913-06-22,60.0
1913-06-23,60.0
1913-06-24,54.0
1913-06-25,60.0
1913-06-26,60.0
1913-06-27,77.0
1913-06-28,200.0
1913-06-29,280.0
1913-06-30,224.0
1913-07-01,224.0
1913-07-02,178.0
1913-07-03,158.0
1913-07-04,120.0
1913-07-05,102.0
1913-07-06,70.0
1913-07-07,65.0
1913-07-08,56.0
1913-07-09,46.0
1913-07-10,54.0
1913-07-11,50.0
1913-07-12,52.0
1913-07-13,44.0
1913-07-14,48.0
1913-07-15,42.0
1913-07-16,39.0
1913-07-17,39.0
1913-07-18,39.0
1913-07-19,65.0
1913-07-20,250.0
1913-07-21,295.0
1913-07-22,340.0
1913-07-23,400.0
1913-07-24,460.0
1913-07-25,360.0
1913-07-26,189.0
1913-07-27,158.0
1913-07-28,120.0
1913-07-29,65.0
1913-07-30,52.0
1913-07-31,44.0
1913-08-01,44.0
1913-08-02,33.0
1913-08-03,6.0
1913-08-04,4.0
1913-08-05,4.0
1913-08-06,7.0
1913-08-07,14.0
1913-08-08,16.0
1913-08-09,14.0
1913-08-10,16.0
1913-08-11,580.0
1913-08-12,310.0
1913-08-13,56.0
1913-08-14,36.0
1913-08-15,32.0
1913-08-16,24.0
1913-08-17,20.0
1913-08-18,18.0
1913-08-19,11.0
1913-08-20,6.0
1913-08-21,6.0
1913-08-22,2.0
1913-08-23,2.0
1913-08-24,21.0
1913-08-25,9.0
1913-08-26,14.0
1913-08-27,14.0
1913-08-28,20.0
1913-08-29,26.0
1913-08-30,20.0
1913-08-31,29.0
1913-09-01,39.0
1913-09-02,265.0
1913-09-03,250.0
1913-09-04,178.0
1913-09-05,189.0
1913-09-06,138.0
1913-09-07,36.0
1913-09-08,500.0
1913-09-09,2560.0
1913-09-10,740.0
1913-09-11,360.0
1913-09-12,345.0
1913-09-13,202.0